Montana Department of Transportation

Main Content

Accidents and Incidents Report

Hourly Weather Roundup

ASUS45 KTFX 232019
RWRMT 
MONTANA HOURLY WEATHER ROUNDUP
NATIONAL WEATHER SERVICE GREAT FALLS MT
219 PM MDT WED JUL 23 2014

NOTE: "FAIR" INDICATES FEW OR NO CLOUDS BELOW 12000 FEET WITH NO
SIGNIFICANT WEATHER AND/OR OBSTRUCTIONS TO VISIBILITY.

* THESE STATIONS ARE NOT UNDER NWS QUALITY CONTROL. THEY DO NOT
   REPORT WEATHER SUCH AS PRECIPITATION OR FOG.

MTZ001.007-043-232100-
WEST OF THE DIVIDE
CITY           SKY/WX    TMP DP  RH WIND       PRES   REMARKS
KALISPELL      SUNNY     79  54  42 VRB5      30.01F 
MISSOULA       SUNNY     86  50  29 S13       30.00F 
BUTTE          PTSUNNY   79  48  34 E7        30.19F 
MULLAN PASS    SUNNY     70  52  53 VRB5      30.15F 
* ESSEX        N/A       79  49  35 NW3        N/A   
* LINCOLN      N/A       79  56  45 NW3G8      N/A   
* LOOKOUT PASS N/A       76  53  45 SE1G9      N/A   
* POLSON       N/A       81  54  39 N3         N/A   
* RONAN APT    SUNNY     79  61  54 N/A        N/A   
* SEELEY LAKE  N/A       78  53  42 S8         N/A   
* THOMP F APT  SUNNY     83  39  21 S11G20     N/A   
* YAAK HILL    N/A       84  50  31 SW1G6      N/A   
--------------------------------

MTZ008-052.055-232100-
SOUTHWEST MONTANA
CITY           SKY/WX    TMP DP  RH WIND       PRES   REMARKS
BOZEMAN        PTCLDY    81  48  32 W5        30.13F 
DILLON         PTSUNNY   79  48  34 N5        30.16F 
W YELLOWSTONE  PTCLDY    81  34  18 SW13G30   30.29S 
* THREE FORKS  PTSUNNY   81  73  77 N/A        N/A   HI  86 
* BOULDER HILL N/A       75  45  34 SW9G19     N/A   
* MONIDA PASS  N/A       78  36  22 SE8G20     N/A   
* RAYNOLDS PAS N/A       80  66  62 SW16G21    N/A   HI  82 
* WHITEHALL    N/A       84  52  33 S4G9       N/A   
* WISE RIVER   N/A       78  46  32 E6G13      N/A   
--------------------------------

MTZ009.010-012-014-046-048-049-054-232100-
EAST SLOPES AND CENTRAL MONTANA
CITY           SKY/WX    TMP DP  RH WIND       PRES   REMARKS
CUT BANK       SUNNY     81  57  44 S12       30.06F HI  81 
GREAT FALLS    SUNNY     86  48  27 VRB3      30.03F 
HELENA         PTCLDY    86  48  27 E10G18    30.06F 
MALMSTROM AFB  SUNNY     88  48  25 SE12      30.03F 
* CONRAD       SUNNY     79  66  65 E5         N/A   
* DEARBORN     N/A       86  52  31 SW11G16    N/A   
* EAST GLACIER N/A       77  46  33 W16G22     N/A   
* MONARCH      N/A       79  48  34 E12G19     N/A   
* ROGERS PASS  N/A       77  44  31 E4G17      N/A   
* SAINT MARY   N/A       77  49  37 SW7G14     N/A   
* SWEET GRASS  N/A       78  55  45 S8G15      N/A   
* WHITE SULPH  N/A       81  50  34 S6         N/A   
--------------------------------

MTZ011-013-016-021-035-040-045-047-050-051-232100-
NORTH CENTRAL MONTANA
CITY           SKY/WX    TMP DP  RH WIND       PRES   REMARKS
HAVRE          PTCLDY    90  57  33 E15G29    30.00F 
LEWISTOWN      SUNNY     84  59  43 VRB3      30.10F HI  84 
* FORT BENTON  SUNNY     90  52  27 SE5       30.01F 
* CHESTER      N/A       82  53  37 SE7G18     N/A   
* DENTON       N/A       85  52  32 SE6G16     N/A   
* JUDITH GAP   N/A       79  56  45 E5G12      N/A   
* LOMA         N/A       89  54  30 S6G16      N/A   
--------------------------------

MTZ017.020-022.027-061-062-232100-
NORTHEAST MONTANA
CITY           SKY/WX    TMP DP  RH WIND       PRES   REMARKS
GLASGOW        PTCLDY    90  57  33 E16G24    30.04F 
GLENDIVE       PTSUNNY   88  63  43 E12G17    30.08F HI  89 
JORDAN         SUNNY     91  57  32 E17G24    30.04F 
SIDNEY         PTCLDY    86  64  48 SE10      30.10F HI  87 
WOLF POINT     PTSUNNY   90  59  35 E18G29    30.05F 
* BEAVER HILL  N/A       84  66  55 E20G26     N/A   HI  86 
* CIRCLE       N/A       87  64  46 E13G18     N/A   HI  88 
* LINDSAY DVD  N/A       84  59  43 E14G24     N/A   HI  84 
* NAVAJO       N/A       83  62  49 E12G20     N/A   HI  84 
--------------------------------

MTZ028.042-056.058-232100-
SOUTHCENTRAL AND SOUTHEAST MONTANA
CITY           SKY/WX    TMP DP  RH WIND       PRES   REMARKS
BAKERPTCLDY    86  64  48 E17G26    30.13F HI  87 
BILLINGS       PTCLDY    84  59  43 E6        30.07F HI  84 
LIVINGSTON     PTCLDY    88  50  27 VRB5      30.11F 
MILES CITY     PTCLDY    91  64  41 SE10G21   30.04F HI  93 
* LAUREL APT   PTCLDY    82  59  46 E6         N/A   HI  82 
* ROUNDUP APT  PTCLDY    84  59  43 E6         N/A   HI  84 
* ALZADA       N/A       86  61  43 E8         N/A   HI  86 
* HYSHAM       N/A       85  58  40 E10G15     N/A   HI  84 
* LAME DEER    N/A       83  64  53 SE14G24    N/A   HI  84 
* REED POINT   N/A       85  54  35 W6G11      N/A   
* ROSCOE HILL  N/A       82  52  35 NW4        N/A   
--------------------------------

REGIONAL REPORTS...DAKOTAS
CITY           SKY/WX    TMP DP  RH WIND       PRES   REMARKS
WILLISTON      PTCLDY    88  61  40 SE15      30.13F HI  88 
DICKINSON      PTCLDY    82  64  55 SE18      30.16F HI  84 
CROSBY         N/A       75  72  90 E16G23    30.18F 
TIOGA          PTCLDY    81  66  60 SE16G23   30.21F HI  83 
WATFORD CITY   SUNNY     84  64  51 SE15G25   30.11F HI  85 
BISMARCK       CLOUDY    81  61  51 SE16      30.23F HI  82 
GRAND FORKS    PTCLDY    73  59  62 NW8       30.27F 
FARGO          SUNNY     77  59  54 N9        30.26F 
BUFFALO SD     PTSUNNY   84  63  49 E16G25    30.10F HI  85 
RAPID CITY     SUNNY     81  63  54 SE17      30.19F HI  82 
--------------------------------

REGIONAL REPORTS...WYOMING/IDAHO/WASHINGTON
CITY           SKY/WX    TMP DP  RH WIND       PRES   REMARKS
GILLETTE       SUNNY     90  61  38 SE23G28   30.15F 
SHERIDAN       SUNNY     91  63  39 S10       30.07F 
YELLOWSTONE LA SUNNY     79  30  17 W9        30.41S 
SALMON         PTSUNNY   79  54  42 SW3       30.03F 
MULLAN PASS    SUNNY     70  52  53 VRB5      30.15S 
SAND POINT     PTCLDY    81  54  39 NE3       29.94F 
SPOKANE        PTSUNNY   82  52  35 SE8       29.91F 
--------------------------------

REGIONAL REPORTS...ALBERTA
CITY           SKY/WX    TMP DP  RH WIND       PRES   REMARKS
CALGARY        PTCLDY    75  50  42 E6        30.04F 
LETHBRIDGE     SUNNY     75  59  58 VRB9      30.03F 
MEDICINE HAT   SUNNY     84  57  40 S5        30.01F HI  83 
EDMONTON       PTSUNNY   73  61  66 SW5       29.97F 
WATERTON GATE  N/A       77  54  45 E8         N/A   
CARDSTON       N/A       77  57  50 N1         N/A   
MILK RIVER     N/A       81  50  34 S9         N/A   
--------------------------------

REGIONAL REPORTS...SASKATCHEWAN
CITY           SKY/WX    TMP DP  RH WIND       PRES   REMARKS
SWIFT CURRENT  PTSUNNY   75  57  54 SE18      30.07F 
MOOSE JAW      PTSUNNY   79  61  54 SE17G23   30.16F 
REGINA         PTSUNNY   81  57  44 SE17G24   30.19F HI  81 
VAL MARIE      N/A       84  54  36 E15G21     N/A   
ASSINIBOIA     N/A       81  57  44 E15G21     N/A   HI  81 
CORONACH       N/A       84  61  46 E12G18     N/A   HI  84 

--------------------------------